Theta_e
337 337 337 338 340 341 341 342 342 342 343 345 345 346 348 347 347 347 346 345 345 345 345 344 344 345 344 346 345 341 336 330 326 326 326 326 327 327 327 327 327 328 328 328 328 329 329 329 330 331 332 332 333 332 333 332 332 332 332 333 332 331 331 330 330 330 329 328 326 324 323 322 320 319 318 317 317 317 317 317 316 317 317 316 316
338 337 337 338 341 341 341 341 340 340 342 344 345 347 348 348 348 348 347 346 345 345 345 345 344 345 344 345 344 341 337 333 328 328 328 328 328 328 328 328 329 329 329 330 330 331 331 331 332 332 332 332 332 332 332 332 331 329 328 328 327 325 325 325 324 323 322 321 321 320 319 319 319 318 318 318 318 318 318 317 317 317 317 316 316
340 339 338 340 342 343 342 341 340 340 342 343 344 347 348 348 348 348 348 347 346 346 347 346 345 346 345 345 344 343 342 338 333 331 331 330 331 331 331 331 331 331 331 332 332 332 332 332 332 332 331 329 330 330 329 329 328 326 324 323 323 322 322 322 321 320 319 319 318 319 318 319 319 319 319 319 319 319 319 319 319 319 318 317 317
341 340 341 342 344 345 344 342 340 340 342 343 345 348 348 348 349 349 348 347 347 347 347 346 345 345 345 345 345 345 344 341 337 336 334 333 332 331 332 332 332 331 331 331 331 331 330 330 330 329 328 327 327 327 325 325 324 323 322 321 321 321 321 320 319 318 318 318 318 318 319 319 319 320 320 320 320 320 320 321 321 321 321 320 320
343 343 345 345 345 346 346 344 342 341 341 343 345 348 348 348 349 348 348 347 345 346 346 346 345 345 343 342 345 345 344 341 340 340 340 338 337 334 333 332 332 329 328 328 328 327 327 327 327 326 325 325 324 323 322 322 321 320 320 320 319 319 319 318 319 319 319 319 319 319 320 320 320 320 320 321 321 321 321 321 321 321 321 321 321
344 345 346 346 347 347 346 346 345 343 342 343 345 347 348 348 348 348 347 346 346 346 345 345 345 345 343 341 344 345 343 343 342 342 343 341 340 340 337 335 335 332 331 330 327 324 324 323 322 322 321 321 320 320 319 319 319 319 319 319 319 319 319 319 319 319 319 320 320 320 320 321 321 320 321 321 321 321 321 322 321 322 322 321 321
345 346 346 347 347 346 345 345 344 343 342 343 345 347 347 348 349 349 348 348 346 346 345 346 346 344 342 340 344 345 343 343 343 344 344 341 339 338 337 337 337 336 337 337 331 326 325 323 321 320 319 319 319 319 319 319 319 319 319 320 320 320 320 321 322 322 322 322 323 323 324 323 324 324 324 324 324 324 324 324 324 324 324 324 324
345 345 346 347 346 345 343 342 343 345 344 343 344 345 347 348 349 350 350 348 348 348 348 347 346 344 344 344 346 345 343 344 345 345 345 343 342 339 339 339 337 338 342 343 336 330 330 327 325 323 321 321 321 320 321 321 321 321 323 323 323 324 324 325 325 326 325 326 326 326 327 327 327 327 327 328 328 329 329 329 330 329 329 329 328
345 346 346 345 345 343 341 342 345 347 346 344 344 345 347 348 350 350 350 349 349 350 350 349 348 347 348 349 349 347 346 346 347 347 345 345 346 343 342 341 339 341 344 344 341 335 333 331 328 327 325 325 325 324 324 325 325 326 326 326 326 327 327 326 327 327 327 328 328 329 330 331 333 334 336 336 338 338 339 340 340 340 339 339 338
345 346 346 345 344 342 342 343 344 346 346 346 346 346 347 348 349 350 350 350 351 350 350 350 349 349 349 350 350 349 348 349 347 346 346 346 346 345 344 342 340 340 342 344 344 341 337 332 329 329 328 327 327 327 327 327 327 327 327 327 326 327 327 327 328 329 330 331 334 335 338 340 341 342 343 344 345 346 346 347 347 347 347 346 346
346 346 346 345 343 341 342 341 342 345 346 346 347 347 347 348 349 350 350 350 351 351 350 350 349 349 349 349 350 349 348 347 346 346 346 347 346 346 346 343 341 340 339 341 345 346 341 334 330 331 330 329 328 328 328 327 328 327 328 328 328 329 330 332 333 335 336 338 341 342 343 345 345 346 346 347 347 347 348 348 348 348 349 349 349
346 346 346 344 342 341 341 340 340 344 345 344 346 347 348 348 349 350 350 350 350 351 350 348 348 349 348 347 348 348 347 346 346 346 347 346 346 346 346 342 341 342 341 341 346 348 344 335 332 334 332 330 330 332 332 332 332 332 332 333 334 335 336 338 339 341 342 343 344 345 345 346 346 346 347 347 348 348 348 348 348 349 349 350 350
345 345 344 343 340 341 341 341 341 344 345 344 345 346 347 348 350 350 349 350 350 350 349 347 347 348 348 347 347 347 347 346 346 347 346 346 345 346 346 343 342 345 345 345 347 349 344 335 331 334 332 331 333 338 339 338 337 336 337 337 338 339 340 341 341 342 343 343 344 344 345 346 346 346 347 347 348 349 349 349 349 350 350 351 351
345 345 343 341 340 340 340 341 343 345 345 345 345 346 345 347 349 350 350 350 350 350 348 347 347 347 348 349 349 349 348 348 347 347 346 345 345 346 345 343 344 345 345 345 346 346 345 335 328 331 333 333 336 339 341 340 339 338 337 338 339 340 341 341 341 342 342 342 342 343 343 345 345 346 347 348 349 349 350 350 351 351 352 352 353
345 345 343 341 339 340 341 341 343 345 344 344 345 345 344 347 350 350 350 349 350 350 349 348 348 348 349 349 349 349 348 347 346 345 346 345 344 346 344 343 345 346 345 344 342 343 343 338 333 333 334 334 337 340 342 344 343 340 339 338 339 339 340 340 341 341 342 342 342 343 343 344 345 347 348 349 349 350 351 351 352 353 353 354 355
345 345 344 343 341 341 342 342 344 345 344 343 344 344 345 348 350 349 350 350 350 350 349 348 347 348 349 348 348 348 346 344 344 345 345 344 344 345 342 341 343 346 347 344 342 342 342 343 344 340 336 336 338 341 344 346 346 341 337 336 337 337 337 338 340 341 342 343 343 344 345 347 348 349 350 350 349 349 349 350 350 351 352 353 353
345 345 344 344 342 342 343 342 343 344 343 343 344 345 346 348 349 348 350 350 350 350 349 348 349 348 348 348 348 348 345 343 343 344 345 343 343 344 343 340 341 344 347 344 342 344 343 345 349 347 341 339 340 344 347 346 345 340 335 333 333 334 335 336 338 342 344 345 347 347 348 348 349 348 347 347 347 347 347 347 347 347 347 347 348
346 345 344 344 343 343 343 343 342 343 343 343 345 346 347 349 349 349 350 350 350 350 349 348 349 348 349 349 348 347 344 343 343 343 343 342 342 343 343 342 339 340 343 343 343 344 342 345 349 349 347 344 343 346 347 345 341 337 333 331 331 331 332 334 336 339 341 342 343 344 345 345 346 345 345 344 345 346 346 344 342 340 339 339 339
346 346 344 344 344 343 343 342 342 342 343 343 345 347 349 350 350 349 349 349 349 350 349 349 350 349 350 350 348 347 347 345 343 343 342 340 341 341 343 342 340 340 342 343 343 342 343 346 348 348 348 348 346 345 345 344 338 332 329 328 329 330 330 330 331 333 333 334 335 336 337 339 341 341 342 343 345 345 343 339 336 334 332 331 330
346 346 345 344 344 344 342 343 342 343 344 345 346 348 350 351 351 349 348 349 349 348 349 351 351 350 350 350 349 350 349 346 343 343 341 340 341 341 343 342 341 342 343 343 343 343 344 345 346 348 348 348 348 347 347 343 334 329 328 327 326 327 327 328 327 328 328 328 329 331 333 335 336 337 339 343 346 343 337 334 334 332 330 329 328
348 346 346 344 345 345 343 343 344 344 345 345 347 349 350 350 351 350 348 348 349 348 350 351 351 351 351 349 349 350 348 347 344 343 344 344 342 341 342 342 342 344 343 342 343 343 343 343 344 349 349 348 347 345 346 341 331 329 328 326 326 326 326 326 325 326 326 327 327 328 330 333 335 336 340 345 345 340 334 334 336 335 333 331 329
347 347 346 345 345 345 345 345 344 344 346 346 349 352 351 349 348 348 347 347 347 348 350 351 349 350 350 349 351 350 349 349 346 346 347 346 345 342 342 341 342 344 343 342 343 342 344 344 346 349 349 349 347 343 339 335 330 330 329 326 326 326 325 325 325 325 325 325 326 326 328 331 335 337 341 345 344 339 336 338 340 339 337 335 333
345 346 346 345 346 345 345 346 345 345 346 348 351 352 350 348 346 344 343 345 346 348 350 350 348 348 348 349 351 350 349 350 349 348 347 347 346 344 342 339 340 343 344 343 342 342 344 345 347 348 344 342 341 337 336 333 328 329 329 327 326 326 325 325 325 325 325 325 324 325 327 328 332 335 340 343 343 341 339 341 343 344 343 341 338
343 344 345 345 346 346 346 346 345 345 348 350 352 351 347 345 344 342 341 342 344 347 349 349 347 347 348 350 351 350 349 349 349 348 345 345 346 345 343 339 339 342 343 342 342 343 343 344 347 346 340 336 334 330 333 333 328 329 331 329 326 326 326 325 325 325 324 324 324 324 324 326 328 331 334 338 341 342 342 343 345 347 346 346 345
343 343 343 344 345 346 346 347 347 347 350 350 349 348 345 343 343 341 340 341 342 343 345 346 347 349 350 350 351 352 350 349 349 347 344 344 345 345 344 341 340 341 341 342 343 344 345 346 347 344 339 341 338 328 328 332 329 329 331 331 329 327 327 327 327 327 326 324 323 323 324 324 326 327 329 332 336 340 342 343 345 346 347 346 346
345 343 342 343 344 346 347 349 350 348 349 350 348 349 347 344 343 342 341 342 342 342 344 346 347 350 352 350 350 352 351 349 349 348 344 343 342 344 344 343 342 341 340 341 342 343 345 346 347 344 341 345 342 331 330 333 331 330 330 330 330 329 330 330 329 330 330 329 327 326 325 324 324 325 327 328 330 335 339 342 343 344 344 344 344
349 347 344 343 344 348 349 349 348 346 346 348 349 351 351 347 345 342 341 343 342 342 343 344 347 350 351 350 350 351 351 350 349 348 347 346 345 345 345 344 343 342 339 340 341 342 344 345 345 345 346 348 343 335 337 337 332 332 331 330 330 330 330 332 333 334 334 333 335 334 333 329 326 325 325 326 327 330 335 338 340 342 342 342 342
352 352 350 348 346 347 348 347 345 344 345 347 350 351 351 350 347 342 341 343 342 342 342 342 346 350 350 350 351 351 351 350 349 350 349 348 348 347 345 343 344 344 341 340 342 342 344 346 346 346 349 348 341 339 345 343 336 334 332 331 330 329 331 335 335 335 336 337 339 340 341 339 333 329 326 325 325 327 330 334 336 338 339 339 339
353 355 354 353 350 346 345 346 345 344 344 345 347 348 348 348 346 343 342 343 342 342 342 341 344 349 350 350 351 351 351 349 349 351 350 349 348 347 346 343 344 347 343 340 342 342 344 347 347 348 348 346 342 343 348 347 343 342 336 333 331 329 331 335 335 335 336 337 339 342 345 345 342 337 332 327 326 325 327 329 331 334 335 336 337
353 355 356 355 352 347 345 345 346 345 344 344 344 345 345 345 345 345 344 345 344 342 341 340 343 349 351 351 350 350 350 349 349 351 351 350 349 348 347 344 344 349 347 343 342 342 344 348 351 350 347 345 346 347 348 346 345 344 338 333 332 331 330 334 336 335 335 337 340 343 346 347 346 344 340 334 328 325 325 326 328 330 333 334 335
355 355 355 353 353 350 347 345 345 345 344 344 344 344 345 344 344 345 344 345 347 343 341 341 342 347 351 353 353 350 349 348 350 352 352 350 349 347 347 345 344 349 349 347 346 345 346 347 350 350 346 345 349 349 349 348 345 343 339 333 331 332 331 334 336 335 335 337 340 343 346 347 347 346 345 342 336 329 326 326 327 329 331 333 334
353 355 355 352 350 348 346 345 345 346 345 345 344 344 346 345 344 345 344 344 346 344 342 341 342 347 352 354 355 353 351 348 349 352 352 351 350 345 344 345 344 345 347 348 348 347 348 346 347 347 344 346 349 348 348 349 347 344 338 332 330 331 331 332 333 336 338 338 341 346 348 348 348 347 347 345 342 338 330 327 328 330 332 333 334
350 354 355 355 350 345 342 342 343 344 344 346 345 344 345 345 345 345 343 343 346 345 343 342 344 348 352 354 354 355 353 350 349 351 352 353 352 347 343 341 341 341 343 346 344 343 345 346 345 344 341 342 344 344 346 349 348 345 336 331 332 331 330 331 331 334 336 337 341 347 349 349 349 349 349 348 347 345 339 333 332 332 333 334 335
345 350 352 353 351 345 341 340 341 341 342 343 345 344 345 345 345 345 343 344 345 345 344 344 344 346 349 351 353 352 351 349 348 350 353 353 352 350 346 341 338 338 337 338 336 335 338 339 339 338 336 337 339 342 347 349 349 344 336 331 330 329 331 331 332 333 334 335 340 348 352 352 350 350 350 349 348 350 347 340 337 337 336 336 337
343 346 348 348 348 344 340 339 339 339 340 340 341 343 344 344 344 344 345 344 344 344 344 344 345 345 347 351 352 350 347 346 345 346 351 353 353 352 350 347 344 342 340 338 338 339 340 338 335 334 333 335 336 340 343 344 341 337 333 330 330 331 333 333 334 336 336 336 340 347 350 350 351 351 350 349 350 351 350 346 342 340 339 340 341
343 343 345 346 345 343 340 339 339 339 341 341 340 339 340 342 343 343 344 344 344 345 345 344 345 345 346 350 352 349 345 343 344 344 346 350 352 353 352 352 350 349 348 347 346 347 348 345 340 337 335 334 333 334 334 334 333 332 331 332 334 335 336 338 339 339 339 339 340 342 343 342 345 346 344 347 351 352 351 349 346 343 342 343 345
347 345 344 344 344 343 340 339 339 340 342 343 341 338 337 339 341 342 342 342 343 345 345 345 345 344 345 347 348 348 345 344 348 350 349 348 350 352 352 352 351 351 351 350 350 351 351 350 345 340 337 334 332 329 329 331 332 332 334 337 337 338 341 344 344 342 339 340 341 341 337 336 338 337 339 347 352 352 351 349 347 345 345 346 348
347 348 348 345 344 343 341 339 340 340 341 341 341 339 337 337 338 339 341 340 340 341 343 343 343 342 341 342 344 346 347 348 352 354 353 350 349 350 351 351 351 351 350 350 351 351 351 351 348 343 338 335 333 329 329 335 339 338 337 338 339 342 344 345 345 343 342 341 341 338 334 333 333 332 338 347 349 347 347 345 344 345 345 347 351
347 347 348 348 346 345 343 341 341 341 339 338 338 338 337 337 337 337 338 339 339 339 340 341 341 340 339 339 340 341 344 348 351 352 352 350 349 349 348 348 349 350 350 349 349 348 349 350 350 348 342 338 335 333 332 335 341 343 344 344 344 344 345 348 346 345 346 345 343 338 334 332 329 328 337 346 347 342 340 339 339 340 343 348 352
348 347 347 348 348 347 346 344 342 342 340 338 337 336 335 335 336 337 337 338 338 338 339 340 340 340 340 339 338 338 339 342 344 346 346 347 348 349 349 348 348 348 349 350 350 349 348 349 351 351 346 341 337 334 333 335 338 339 343 348 348 347 348 350 349 348 349 347 343 340 336 331 326 325 332 339 340 338 337 337 335 334 341 349 353
347 346 346 346 348 348 347 346 345 344 342 341 337 335 334 335 335 336 336 336 336 336 337 338 337 337 337 335 335 335 336 338 339 341 342 343 345 346 346 347 348 349 350 351 351 350 349 350 350 349 348 344 337 335 336 336 336 335 338 345 350 350 349 350 347 346 347 344 340 337 332 326 325 326 329 331 331 334 337 338 334 334 342 350 353
348 347 345 345 346 348 348 347 347 345 343 342 340 336 333 333 333 334 334 335 334 334 335 335 334 334 333 332 332 333 337 341 343 344 344 344 344 344 343 342 343 346 348 351 351 350 350 351 348 347 346 342 337 336 335 333 333 333 334 341 346 347 347 347 344 343 343 341 338 333 327 324 325 327 328 328 328 333 339 340 340 341 347 351 353
350 349 347 345 344 346 347 348 347 347 346 344 343 339 335 332 331 331 332 333 333 333 333 333 332 332 331 331 331 333 339 343 345 346 346 345 344 343 343 342 341 340 342 344 345 346 346 346 343 342 340 336 332 332 332 331 331 332 332 339 345 348 349 349 348 346 343 340 336 331 328 324 323 325 326 326 330 337 341 343 343 347 350 352 353
348 349 348 347 346 344 344 346 347 347 347 346 345 344 342 337 334 332 331 332 332 331 331 331 331 331 331 331 331 331 335 340 343 343 343 343 342 342 341 340 340 338 337 338 338 338 338 338 335 333 330 329 328 328 329 329 330 330 333 339 347 350 350 349 348 345 341 338 335 333 331 325 322 323 322 324 332 341 344 343 343 347 350 351 352
345 347 346 347 348 346 344 344 346 346 347 346 345 345 344 343 340 337 335 333 332 332 331 330 330 330 331 331 331 331 332 335 338 340 340 340 340 340 339 339 338 338 338 338 337 337 336 334 333 329 326 326 326 326 326 327 327 328 331 334 338 341 342 343 342 339 335 335 336 336 334 327 324 325 322 323 332 341 346 345 344 347 350 351 352
345 347 346 345 346 347 346 344 344 344 346 346 347 347 344 343 343 343 341 339 336 334 333 332 331 331 331 331 331 330 329 330 332 334 336 338 338 340 341 341 341 340 340 340 339 339 338 336 335 331 328 328 327 324 325 325 324 325 326 328 330 334 338 340 338 336 334 333 335 340 339 330 326 327 324 322 329 338 345 348 347 346 349 351 352
347 347 347 345 344 345 346 346 344 343 344 345 347 349 348 347 346 346 345 344 342 340 337 336 333 332 331 331 332 331 329 329 329 329 330 333 335 337 337 338 338 339 339 340 339 339 339 337 335 331 328 328 326 325 324 324 325 326 328 330 331 333 336 337 336 334 333 332 335 341 344 335 327 329 325 321 327 334 340 346 348 348 347 347 348
349 348 348 347 345 344 345 346 345 345 344 343 344 346 347 348 348 348 347 346 345 344 342 340 338 335 334 333 332 333 332 330 330 330 331 334 336 337 336 335 333 333 333 334 334 335 335 334 332 330 327 326 326 325 325 327 330 334 338 339 337 338 338 337 338 337 336 335 335 340 346 340 330 329 327 322 325 332 337 343 347 350 349 348 348
352 351 350 349 348 347 345 345 346 347 347 346 345 345 344 345 346 347 348 347 347 346 345 344 343 341 340 337 335 335 336 335 335 335 337 340 341 342 341 339 337 335 331 329 330 330 330 330 329 328 326 325 324 326 329 332 337 342 345 345 343 344 344 343 343 342 340 340 336 339 347 345 334 331 330 325 327 335 340 344 346 349 350 349 349
352 353 352 350 350 349 349 348 349 351 353 353 351 349 348 346 346 345 347 346 346 345 345 344 344 343 343 342 340 338 338 337 337 337 338 340 340 341 340 340 339 336 331 329 330 328 327 327 328 327 326 325 324 326 329 332 336 342 347 348 347 348 347 347 347 346 345 342 335 337 345 343 335 332 332 331 333 338 343 347 348 349 349 349 351
353 353 354 353 352 352 352 352 351 352 354 354 351 349 350 349 349 348 348 348 347 346 345 344 344 344 343 343 343 343 342 341 340 340 339 339 338 338 337 337 336 334 332 331 332 331 329 329 329 329 328 327 327 329 331 333 336 340 345 348 349 349 349 348 347 348 349 342 332 334 341 339 334 333 333 336 339 340 342 347 350 350 350 350 351
Wind_Speed
19 21 20 20 18 17 16 15 15 16 17 17 18 18 18 17 15 14 13 13 12 10 10 10 9 7 7 6 5 8 11 10 11 11 11 10 10 10 10 9 9 9 9 9 9 8 8 7 6 6 5 5 5 4 4 3 3 3 4 3 4 5 6 6 6 6 6 7 8 8 8 8 8 8 8 8 8 8 8 8 8 8 8 8 8
19 20 20 19 17 15 15 15 15 16 16 16 17 17 17 17 15 15 15 15 14 12 11 10 11 10 8 7 6 9 11 11 11 11 11 10 10 10 10 9 9 8 8 8 8 7 6 6 5 5 5 5 4 4 4 4 4 5 5 4 5 6 7 7 7 8 8 8 8 8 8 8 8 8 8 8 8 8 8 8 8 8 8 8 8
19 20 19 18 17 16 15 14 14 15 15 15 17 17 17 17 15 13 13 15 14 12 10 10 11 10 8 6 7 9 11 11 11 10 10 10 9 9 9 9 9 8 8 7 7 6 6 5 5 5 5 5 4 4 4 4 5 5 5 6 7 8 8 8 8 9 8 8 8 8 8 8 8 8 8 8 8 8 8 8 8 8 8 8 8
19 19 17 15 15 15 15 14 14 14 14 15 16 17 17 17 16 14 14 14 13 11 10 10 11 10 8 6 6 7 7 9 10 9 8 9 9 9 9 9 9 9 8 7 7 6 6 5 5 5 5 4 4 5 5 5 6 6 6 7 8 8 8 9 9 9 8 8 8 8 8 8 7 7 7 7 7 7 7 8 8 7 7 7 8
18 18 16 14 14 14 14 14 14 13 14 15 15 15 16 17 16 15 15 15 13 11 10 9 10 10 9 9 8 5 4 7 9 8 7 6 7 8 8 9 9 9 9 9 8 7 7 6 6 5 5 5 5 6 6 7 7 7 8 8 8 8 8 9 8 8 8 8 8 8 8 7 7 7 7 7 7 7 7 7 7 7 7 7 7
18 17 16 14 14 13 13 13 14 14 14 14 14 14 16 18 18 17 15 14 11 10 9 8 9 10 9 9 7 5 4 3 6 6 7 6 5 6 7 7 7 8 10 11 10 10 9 8 8 7 7 7 7 7 8 8 8 8 8 8 8 9 8 9 8 8 8 8 8 7 7 7 7 7 7 7 7 8 8 7 7 8 8 7 7
17 16 15 14 13 13 13 13 14 15 15 15 15 16 17 19 19 16 13 12 10 10 10 8 10 12 11 8 8 7 7 3 2 3 4 6 7 6 7 6 6 8 11 13 12 12 12 12 11 11 10 10 9 9 9 9 9 8 8 8 9 9 9 9 9 8 8 8 8 8 8 8 8 8 8 8 8 8 8 8 8 8 8 8 8
16 15 14 13 13 13 14 15 15 15 15 16 16 16 16 17 17 14 13 13 12 11 10 9 11 11 9 9 10 9 9 6 3 0 2 4 8 9 9 9 9 9 11 13 12 11 13 13 13 13 12 11 11 10 10 9 9 8 8 9 9 9 9 9 9 8 8 8 8 8 8 8 9 9 9 9 9 10 10 10 10 10 9 9 9
16 14 13 13 13 14 14 14 14 14 14 15 16 16 15 16 16 15 15 14 12 12 10 10 10 8 7 9 9 9 9 7 5 3 2 1 6 9 10 10 11 10 10 12 12 11 11 13 13 13 12 11 11 11 10 10 9 9 9 9 9 9 9 9 9 8 8 9 9 9 9 10 10 10 11 11 11 11 11 11 11 10 10 10 9
17 16 14 13 13 14 14 13 13 14 14 14 15 15 15 15 16 16 15 14 13 12 10 10 9 7 7 7 7 8 9 7 6 5 3 3 4 8 10 10 9 9 10 12 13 11 10 11 12 12 12 11 11 11 10 10 10 9 9 9 9 9 9 9 9 9 9 9 10 10 10 11 11 12 12 12 12 11 11 11 11 11 11 10 10
16 16 15 13 14 15 13 13 14 14 13 14 13 13 14 16 16 15 15 14 13 11 11 10 9 8 6 5 7 7 7 7 7 8 8 5 4 7 9 10 9 9 10 12 12 12 10 10 10 10 11 11 11 11 11 11 10 10 10 10 10 10 10 10 9 9 10 10 10 11 11 12 12 12 12 12 12 11 11 11 11 11 11 11 10
14 15 15 14 14 14 13 13 14 14 14 14 13 12 13 16 15 14 13 14 13 12 11 11 11 10 6 5 8 8 8 8 8 8 9 6 4 5 7 10 11 10 11 12 12 12 11 10 9 9 9 10 11 11 12 12 11 11 11 10 10 10 10 10 10 10 10 10 11 11 12 12 12 12 12 12 12 11 11 11 11 10 10 10 10
14 14 14 14 14 14 14 14 14 13 13 13 13 13 13 15 14 13 13 13 11 10 9 11 11 10 7 7 8 9 9 9 9 7 7 7 3 2 5 8 11 12 12 12 11 12 11 11 9 9 8 8 10 11 12 12 11 11 11 11 11 10 10 10 10 11 11 11 12 12 12 12 12 12 12 11 11 11 10 10 9 9 9 9 9
13 13 14 15 14 14 14 14 13 13 13 14 14 14 14 14 13 13 13 11 11 10 9 10 10 9 8 7 8 8 6 6 7 7 7 8 5 3 4 6 9 11 12 11 10 10 10 11 10 9 8 7 9 12 12 12 12 12 12 11 11 11 11 11 12 12 12 12 12 12 12 11 11 10 10 10 9 9 9 8 8 8 8 8 9
14 14 14 14 14 15 14 13 13 12 13 15 15 14 15 15 14 13 12 11 11 9 8 9 9 9 8 7 7 7 5 6 7 9 10 8 6 4 5 8 9 9 10 9 8 9 10 11 12 10 8 7 9 12 12 12 12 13 12 12 12 12 12 12 12 12 11 11 11 10 10 9 9 8 8 8 7 8 8 7 7 7 7 8 9
14 14 14 14 14 14 13 13 13 12 13 14 14 14 15 14 14 14 12 10 10 9 7 8 10 10 7 6 7 5 4 6 7 7 10 11 6 5 5 7 9 8 7 6 6 7 9 10 11 12 9 7 10 12 12 12 13 14 13 12 12 12 12 11 11 11 10 10 9 8 7 7 7 7 7 7 7 7 8 7 7 7 7 8 9
13 13 14 14 14 14 13 13 13 14 14 14 14 14 14 13 13 14 12 10 9 7 7 9 9 9 7 5 4 4 3 3 4 4 6 11 9 6 4 1 3 5 6 5 5 6 6 6 8 11 12 10 11 11 12 13 13 14 13 12 12 11 11 11 10 9 9 8 7 6 6 6 6 6 6 7 8 8 8 8 7 7 8 8 9
13 13 13 13 13 13 13 13 13 14 14 14 14 14 14 13 14 14 12 10 8 6 8 10 10 9 7 5 4 5 4 2 4 7 8 11 10 8 7 3 1 4 5 5 4 5 5 4 4 7 12 12 11 10 11 13 14 13 12 11 11 11 11 10 10 9 8 8 7 7 7 6 6 6 6 7 8 9 8 8 8 8 8 9 9
13 13 13 12 13 14 14 14 13 14 14 15 15 14 14 13 13 15 14 13 10 8 9 11 11 10 7 6 6 7 6 4 6 9 13 13 10 11 11 6 3 6 7 6 4 6 5 3 3 5 9 12 11 10 10 11 12 12 11 10 10 10 10 10 10 10 10 9 9 9 8 7 6 6 7 8 9 9 9 9 9 9 10 10 10
12 13 13 12 13 14 14 15 14 14 14 15 14 13 13 12 12 15 15 14 12 10 11 11 9 9 8 6 8 8 5 6 8 9 11 10 9 12 13 9 3 6 7 7 6 7 6 3 3 4 6 8 9 9 9 9 10 10 9 9 9 10 10 10 11 11 11 11 11 11 10 9 8 8 8 9 10 10 10 10 10 10 10 11 11
12 12 13 13 13 14 14 15 14 14 15 15 14 13 13 12 12 13 15 15 14 13 12 10 7 8 8 6 9 9 6 7 9 8 7 5 5 8 12 11 5 4 7 7 6 6 6 4 4 4 4 6 7 8 8 7 6 6 6 7 9 10 11 11 11 12 12 12 12 12 12 12 11 11 11 11 11 11 11 11 11 11 11 12 12
13 13 13 13 14 14 14 14 14 15 15 15 15 14 12 11 10 11 13 14 14 13 12 10 8 9 8 7 9 9 8 8 9 7 5 3 3 4 7 11 8 7 9 8 5 4 4 3 1 2 2 4 7 8 6 2 4 5 5 6 8 9 11 12 12 12 13 13 13 14 14 14 14 13 12 12 12 12 11 11 11 11 12 12 12
13 13 14 14 14 14 14 14 15 15 15 15 14 13 12 10 11 12 12 13 13 14 13 10 8 10 9 7 8 8 8 7 6 5 5 4 2 2 5 9 9 9 11 9 6 3 3 3 4 2 3 6 7 7 3 1 4 7 5 5 7 8 10 11 12 12 13 13 14 15 15 16 15 15 14 13 13 12 11 11 12 12 12 12 12
13 14 14 14 15 15 14 14 15 15 15 14 12 12 11 11 12 12 11 12 13 13 13 10 9 10 10 8 7 7 7 6 5 4 5 5 2 3 6 9 8 8 8 9 7 5 4 4 5 5 5 7 6 5 3 2 4 8 6 4 6 7 8 10 11 12 12 13 14 15 16 16 16 16 15 15 14 13 12 11 12 12 12 12 12
14 14 14 15 15 15 16 15 14 14 14 13 12 12 12 12 12 12 12 12 11 11 11 11 12 10 9 9 6 3 4 5 5 3 3 5 2 2 6 9 8 7 8 9 8 7 7 6 5 6 6 7 8 7 4 3 5 9 8 5 5 6 7 9 10 10 11 12 14 15 16 16 17 17 16 15 14 13 12 12 12 13 13 13 12
13 14 14 15 14 14 14 14 14 14 13 13 13 13 13 13 12 12 12 12 10 11 11 11 13 12 10 10 7 6 6 5 4 3 2 3 4 2 4 8 8 8 10 10 8 8 8 7 6 7 7 7 8 8 5 3 6 9 9 8 7 6 7 8 8 9 10 11 13 14 16 17 17 17 16 16 15 14 13 12 13 13 13 13 13
12 12 13 14 13 12 12 13 13 13 13 13 13 14 13 12 12 12 12 12 11 11 11 11 12 13 12 12 10 9 9 7 6 6 4 6 6 5 6 7 7 9 11 10 9 9 8 7 7 6 6 7 8 6 4 3 5 9 9 9 9 8 7 6 7 9 10 10 12 14 16 17 18 18 17 16 15 14 13 13 13 13 13 14 14
11 11 12 12 12 12 12 12 13 12 12 13 14 14 14 12 12 13 13 12 12 12 11 11 11 12 12 14 13 11 12 11 8 6 5 6 6 6 8 9 6 8 12 11 11 12 9 9 9 7 5 6 7 4 3 4 6 9 9 9 9 9 9 7 8 10 11 12 13 14 17 18 19 19 18 17 16 15 14 13 13 13 14 14 15
13 13 13 12 13 13 12 12 12 12 12 13 13 14 14 12 12 13 13 12 12 12 12 12 12 12 10 12 14 13 13 14 11 8 8 8 8 8 10 11 8 8 11 12 13 13 9 8 10 7 3 5 6 4 4 6 8 9 10 10 9 9 10 9 9 10 12 14 14 15 17 19 20 20 19 18 17 15 14 14 14 13 14 15 15
13 14 14 14 13 13 13 12 12 12 12 13 13 14 14 13 12 12 12 12 12 12 13 13 13 12 10 9 11 11 12 15 13 10 9 10 11 11 11 12 11 9 10 11 13 13 9 6 7 6 3 5 5 6 8 9 9 10 11 11 9 10 10 10 9 11 12 14 14 16 17 18 20 20 19 18 17 16 15 14 14 14 14 15 16
13 13 15 15 14 13 13 13 13 12 12 12 13 13 13 13 13 13 13 12 12 12 12 12 12 13 11 9 9 10 11 13 12 10 9 8 9 11 13 13 13 12 11 11 12 13 12 8 7 6 3 3 4 7 10 11 11 11 12 12 11 11 11 11 11 11 12 13 13 14 16 17 19 20 20 18 17 16 16 15 14 14 14 15 16
14 14 14 14 15 14 14 14 13 13 13 13 13 13 13 13 13 13 13 12 12 12 12 11 11 12 13 12 11 11 11 12 12 10 9 8 7 9 14 15 13 13 13 12 12 14 14 12 9 8 6 5 4 6 10 12 13 14 12 11 12 12 12 12 12 12 12 13 12 12 15 16 17 19 20 19 17 16 16 16 15 15 14 15 16
15 16 16 15 15 15 15 14 14 14 13 13 13 13 13 13 13 13 13 13 12 12 12 12 12 13 13 14 14 14 13 13 13 13 11 10 9 9 14 16 13 13 15 15 15 15 16 16 14 13 12 11 10 10 10 11 14 14 12 12 13 12 11 12 12 12 13 13 11 12 14 16 17 18 19 18 17 16 17 17 16 16 15 15 17
17 18 18 17 16 16 16 16 15 15 15 14 14 14 14 14 13 13 13 13 12 12 12 12 12 13 13 13 14 15 15 14 14 16 14 11 10 8 11 13 13 13 14 15 16 16 17 17 17 16 15 14 14 12 11 11 13 14 14 14 14 13 12 12 14 13 13 12 11 11 13 15 16 17 18 18 16 16 17 18 18 17 16 15 17
17 19 20 19 17 16 16 17 17 17 16 16 15 15 15 15 14 14 13 12 12 13 13 12 12 13 13 12 12 13 14 13 13 16 17 15 11 9 8 10 9 9 11 13 14 14 15 16 16 15 14 13 13 13 13 13 14 16 17 16 15 14 13 14 15 14 13 12 12 12 14 15 16 17 18 17 15 15 17 18 18 18 17 16 17
17 18 20 20 19 18 17 18 18 18 18 17 17 17 16 16 16 15 14 13 13 13 13 12 12 13 14 14 13 12 12 13 12 13 16 17 15 12 12 12 11 10 10 12 13 13 15 16 16 14 13 14 13 13 14 15 16 16 17 16 14 14 14 15 14 13 13 13 14 14 14 15 16 17 17 15 14 14 15 17 18 19 19 17 17
19 18 19 20 20 20 20 19 19 19 20 19 19 18 17 17 16 16 16 15 15 14 14 13 13 14 14 14 14 13 12 13 13 12 13 16 17 17 16 15 14 14 13 14 14 15 16 18 17 15 15 16 15 14 15 16 16 16 15 15 15 16 16 14 13 13 14 15 15 16 16 16 17 17 16 14 14 14 15 16 18 19 20 18 17
21 20 20 20 21 21 21 21 21 21 21 21 21 19 18 18 18 17 17 17 17 16 15 15 15 15 15 15 14 14 14 13 14 14 14 15 17 19 20 19 17 17 17 18 19 19 20 21 21 21 20 18 17 17 16 15 15 16 16 17 17 17 16 14 14 15 16 16 17 18 19 19 19 19 17 16 16 16 16 17 18 20 20 18 17
21 22 22 22 22 22 22 21 22 23 23 23 23 21 19 19 19 18 17 18 18 17 16 16 15 15 15 16 15 15 15 15 15 16 16 16 16 16 18 20 20 20 21 21 21 21 22 23 24 24 23 20 19 19 18 16 16 16 17 19 19 17 15 14 16 16 16 17 19 21 21 21 22 20 19 18 19 18 18 19 19 20 19 16 16
21 21 24 25 24 23 23 23 23 23 24 24 24 23 22 20 20 20 19 19 19 19 18 17 17 17 16 16 16 16 15 16 15 15 16 15 16 16 16 16 18 19 20 20 20 20 21 22 23 23 23 22 21 21 20 19 20 19 18 17 18 17 15 15 17 17 17 19 22 23 23 23 22 20 19 19 20 20 20 20 21 20 16 14 15
25 22 21 25 26 25 25 24 24 25 25 26 25 25 23 22 22 22 22 21 20 20 20 20 19 19 18 18 17 16 15 14 13 13 13 13 14 15 15 15 16 17 18 19 20 21 21 22 23 23 24 24 22 22 22 22 22 21 18 16 17 18 18 18 19 19 19 21 23 25 25 25 22 20 19 19 20 21 22 21 20 17 13 12 14
25 26 22 22 25 26 27 26 25 26 26 26 26 25 25 24 23 23 24 23 23 22 21 21 21 20 19 19 18 17 16 15 14 13 13 14 15 15 16 16 17 17 18 19 20 21 22 23 24 24 25 25 24 23 24 24 23 22 20 19 20 21 21 22 23 22 21 22 24 26 26 24 22 20 20 21 22 21 20 18 15 11 10 11 13
20 27 26 24 24 25 28 28 27 27 27 26 25 24 24 25 25 25 25 25 25 24 23 23 23 22 20 20 19 18 17 18 19 19 19 19 18 18 19 19 20 20 21 22 22 23 24 25 26 26 27 28 26 25 26 26 25 24 23 21 20 20 21 23 24 23 22 23 26 28 27 23 21 21 22 22 21 18 16 14 11 9 10 11 13
21 25 29 29 27 25 26 29 30 29 29 27 26 25 24 24 25 26 27 27 27 27 26 26 25 24 23 22 21 20 19 19 20 21 22 21 21 21 21 22 23 23 23 24 24 25 26 28 29 29 29 29 29 28 27 27 27 27 26 24 22 22 22 24 25 26 26 27 28 29 28 25 22 22 22 20 17 14 13 13 12 11 11 12 13
26 25 27 30 30 27 26 28 30 30 30 28 27 26 25 23 23 25 26 28 28 29 29 29 28 27 26 25 25 24 23 21 21 22 22 22 22 23 24 25 26 26 25 25 25 26 27 28 30 31 30 30 31 30 28 28 29 29 29 28 27 28 28 28 30 31 30 30 30 30 30 27 23 23 23 19 14 12 12 13 14 13 13 13 13
28 24 24 27 29 29 28 29 30 32 31 29 28 28 27 25 23 23 24 25 27 28 29 30 30 30 29 28 28 28 26 26 25 25 25 24 25 25 25 26 27 27 27 27 27 27 28 29 31 33 32 31 32 32 30 29 31 32 32 32 32 32 33 33 34 34 33 31 31 30 30 28 25 24 23 19 14 13 13 14 15 16 15 15 15
28 25 25 26 27 28 29 29 30 32 32 30 28 27 28 27 26 25 24 24 25 25 26 28 30 31 31 31 31 30 29 29 28 27 27 26 27 28 28 28 29 29 29 30 29 30 31 32 34 35 35 34 33 33 30 29 30 30 29 31 33 34 35 36 36 35 33 31 30 29 31 30 27 26 25 20 17 15 14 15 16 16 16 16 15
28 28 27 27 27 29 29 29 29 31 33 33 32 29 27 27 27 28 27 26 26 26 26 26 27 29 31 32 32 32 32 31 30 29 28 27 27 29 30 31 32 33 33 34 33 33 34 35 37 37 36 35 33 31 28 26 25 24 24 28 30 30 32 34 34 33 31 30 28 29 31 31 28 28 27 23 19 18 16 15 17 17 16 16 15
24 25 26 26 27 30 32 31 30 29 30 32 34 35 33 31 29 29 30 30 30 29 29 28 27 27 29 30 32 33 33 33 32 31 30 29 29 30 32 33 34 36 38 38 37 37 38 38 38 38 37 36 33 30 27 24 22 21 24 28 27 25 28 31 32 31 31 30 29 30 32 32 31 31 30 25 20 19 17 17 18 18 19 17 16
23 23 23 24 25 29 32 33 31 29 27 28 32 35 37 36 35 33 32 32 32 33 32 31 30 30 30 30 31 32 34 34 34 34 33 33 33 34 36 36 38 41 43 42 41 41 41 40 40 40 39 38 36 33 29 27 25 23 26 29 27 25 28 31 32 32 32 31 29 29 32 33 31 29 28 25 21 19 18 18 19 19 19 18 16
22 22 22 24 25 27 29 31 32 32 31 32 36 38 37 38 38 36 34 34 35 36 36 36 35 34 34 34 33 34 34 34 34 34 35 36 37 39 39 40 43 45 45 43 43 43 42 42 41 41 40 38 37 36 33 31 28 26 27 28 27 27 30 32 33 33 34 31 27 26 30 32 29 27 25 24 25 24 22 22 21 20 18 17 18
Wind_Direction
133 130 128 126 124 123 123 124 126 130 131 129 128 125 122 119 116 115 119 126 135 139 136 138 144 149 131 110 100 105 105 96 92 97 97 97 97 98 99 98 99 99 98 96 95 93 90 90 86 79 72 65 62 56 53 49 46 50 49 51 59 65 63 52 46 40 39 38 36 35 31 30 31 31 33 34 37 39 40 40 38 35 31 32 32
132 131 129 127 125 125 124 125 128 130 131 132 134 130 124 122 121 119 123 126 129 128 122 129 138 139 126 104 85 86 92 95 94 92 91 92 93 95 98 99 98 95 93 89 86 85 80 79 72 66 60 53 52 46 41 38 39 40 43 54 58 59 56 49 47 46 44 41 39 38 35 34 35 36 38 38 38 38 39 38 36 32 27 26 23
133 132 131 129 128 126 126 127 128 128 129 134 139 136 128 124 124 124 123 120 122 127 121 114 119 125 120 97 75 73 74 78 87 93 93 94 94 96 98 97 95 89 85 82 77 75 71 69 65 59 57 55 54 50 44 43 45 46 51 61 61 57 55 50 48 47 44 42 42 40 40 39 39 40 40 39 39 39 37 37 35 31 26 23 20
135 133 132 132 128 126 129 131 130 131 132 136 140 137 132 130 131 129 124 120 121 124 122 119 121 124 118 109 98 82 62 54 70 92 95 94 96 97 99 96 92 85 78 77 73 70 67 63 61 56 53 55 56 55 54 55 55 57 59 61 60 57 55 54 52 49 47 46 45 44 43 42 41 40 39 38 38 37 35 33 31 27 24 21 17
140 136 137 137 130 127 132 133 132 135 136 138 140 138 134 129 127 128 126 126 124 118 120 129 136 136 114 105 115 118 84 48 57 82 86 92 102 98 100 100 91 80 74 74 70 67 65 62 59 54 53 54 57 58 60 63 61 60 61 61 61 60 58 58 56 54 51 49 47 45 42 39 37 35 34 33 31 29 28 25 22 19 17 15 11
143 141 142 139 132 131 135 134 134 137 138 138 139 139 135 127 124 125 124 124 127 131 141 138 141 157 140 113 124 160 159 68 45 69 70 78 104 106 106 104 95 83 72 68 67 66 63 63 61 59 60 60 61 64 64 65 63 62 64 65 65 64 63 61 58 54 51 48 44 41 38 36 32 29 27 25 24 21 18 15 12 11 9 6 3
146 144 142 138 136 137 139 138 134 134 136 137 139 141 138 132 129 130 128 128 137 146 150 138 138 156 158 144 143 159 169 151 54 50 45 67 85 100 110 104 102 89 72 62 62 68 67 65 64 63 64 65 66 67 66 66 65 66 66 67 68 66 64 60 57 52 48 45 41 37 33 31 28 25 23 20 18 15 11 10 7 4 3 359 356
149 146 142 142 143 141 142 140 136 135 137 139 140 141 141 137 134 136 137 138 143 145 142 138 143 150 153 155 152 153 162 157 132 288 319 66 71 78 96 100 105 95 71 60 60 68 69 68 67 66 66 66 68 67 67 67 65 66 66 65 64 62 61 56 52 47 43 39 35 33 28 26 25 21 19 16 14 12 9 8 5 2 359 356 353
151 152 152 152 150 146 146 144 143 144 145 146 143 141 142 142 139 140 140 138 137 137 137 133 132 131 129 137 140 146 151 142 155 212 257 119 68 64 75 86 103 99 75 62 60 65 70 70 70 69 67 66 67 67 67 66 63 63 60 59 56 53 52 47 44 39 36 33 29 28 25 24 23 21 21 19 16 14 13 11 9 7 3 359 357
155 156 156 157 156 153 153 150 146 145 149 151 147 143 144 145 145 143 143 141 134 130 129 123 116 120 126 127 128 134 139 142 164 176 154 138 87 68 59 60 84 91 81 73 63 62 66 68 71 70 69 67 67 65 62 60 56 54 51 48 47 45 43 39 37 34 31 30 28 27 26 24 24 23 23 21 19 17 16 16 14 12 9 7 5
156 154 152 157 158 157 157 153 148 147 151 154 149 146 146 147 146 145 145 143 142 141 136 132 133 143 149 142 139 135 138 148 144 128 117 114 92 79 59 49 65 71 75 81 71 62 63 68 70 69 69 69 68 63 57 53 49 47 45 42 41 39 38 36 34 32 30 27 26 24 22 21 20 19 18 15 15 14 12 13 11 11 9 7 4
161 155 153 156 157 158 160 157 153 153 154 154 151 151 151 146 141 142 143 141 146 151 147 148 151 151 145 132 139 135 132 136 128 118 110 102 95 88 70 58 67 68 67 77 75 66 61 64 66 62 67 72 71 65 57 53 49 47 45 42 42 40 38 37 33 30 26 23 20 17 14 12 10 9 8 7 5 5 5 5 5 4 2 359 355
166 161 155 155 157 159 163 161 158 158 155 153 150 150 154 148 140 138 135 134 137 138 138 144 148 145 128 110 122 126 129 129 126 137 125 112 127 113 78 64 71 72 65 68 73 71 56 49 56 56 63 74 74 69 62 56 52 48 47 43 41 39 36 34 29 26 22 18 13 10 7 3 2 1 359 359 358 357 357 358 359 357 353 348 344
167 167 160 156 159 162 166 163 159 160 156 154 151 148 152 149 145 141 132 126 120 116 123 129 132 134 125 118 123 126 139 143 134 155 158 133 139 146 88 66 74 76 68 64 67 71 53 40 47 51 63 80 78 73 66 58 51 42 38 36 35 31 29 26 22 20 15 13 10 6 4 0 359 358 357 357 355 356 355 356 356 350 345 340 334
165 167 163 160 162 166 166 162 160 163 157 154 151 146 147 147 145 140 133 128 119 116 124 126 129 135 135 137 140 144 161 173 163 167 176 160 140 145 113 82 83 86 79 67 57 64 56 46 48 48 65 87 79 71 61 52 44 33 26 25 25 23 21 18 16 15 11 9 8 5 6 4 3 3 2 4 3 3 1 357 353 344 337 331 327
163 165 165 164 166 167 166 162 162 163 158 154 149 144 145 145 143 139 133 131 127 128 130 128 133 137 140 134 139 159 158 160 164 164 186 186 158 149 141 91 88 103 104 80 58 67 62 52 49 42 48 69 69 63 52 43 35 25 21 19 21 20 18 17 14 13 12 11 13 14 17 18 19 17 14 14 10 5 359 351 344 336 329 325 322
162 165 166 166 167 168 166 166 164 162 159 154 148 146 147 146 144 139 131 129 127 129 134 137 141 139 135 129 145 175 150 161 161 127 184 188 160 158 183 125 96 126 129 107 81 77 64 48 42 35 34 44 54 51 43 38 30 21 17 17 23 24 22 22 22 22 23 25 29 32 35 34 31 27 20 15 8 0 353 346 341 336 332 328 324
163 164 166 167 167 168 166 167 165 161 159 155 151 149 148 147 147 142 138 140 137 135 140 143 148 141 126 120 143 142 123 166 155 115 143 165 161 181 204 220 165 140 139 133 96 66 55 44 27 18 23 30 38 42 38 35 27 17 14 16 24 30 32 32 34 38 41 42 44 43 41 36 31 25 18 11 6 3 359 356 354 351 347 344 340
164 163 164 167 168 167 165 166 165 162 160 156 155 154 150 149 152 152 152 152 149 148 143 138 145 146 134 127 133 126 110 139 148 125 134 150 163 182 197 205 143 123 128 139 113 64 55 36 347 348 14 25 29 34 34 29 24 16 15 21 28 35 41 41 41 46 46 45 43 42 39 33 26 20 15 13 10 11 13 15 13 9 5 2 358
163 163 165 168 170 169 167 166 165 164 162 159 161 160 155 157 161 162 160 158 158 159 148 142 148 153 151 142 138 137 130 150 155 137 136 154 169 179 196 209 167 130 130 125 105 66 50 36 10 359 14 21 20 21 18 17 20 18 20 30 36 41 45 45 43 43 42 41 39 37 35 29 24 20 18 18 18 20 24 28 25 21 17 14 10
166 166 167 169 171 172 171 169 167 166 165 165 167 166 165 170 172 169 167 165 167 163 152 151 159 161 163 158 148 145 141 155 162 154 150 159 155 162 185 194 169 146 161 147 116 69 46 45 34 27 30 15 1 357 355 2 22 24 28 40 43 44 46 44 42 40 37 35 34 33 31 28 25 23 23 23 24 27 31 33 31 27 24 21 17
171 170 169 169 170 173 172 170 170 169 170 172 172 171 173 177 178 175 172 173 175 169 160 160 163 169 173 165 155 146 131 141 153 159 172 167 135 135 162 177 165 141 160 167 144 98 80 98 97 64 37 345 328 330 334 3 58 48 42 48 47 46 48 45 41 38 36 33 31 30 29 28 27 26 27 28 29 31 32 33 32 29 28 25 20
172 173 172 170 169 172 172 172 174 173 173 174 176 179 180 179 183 184 178 176 178 172 169 170 163 159 160 156 160 157 142 142 148 163 190 185 153 121 144 167 169 148 150 159 159 148 132 154 190 221 330 330 314 313 324 43 64 60 53 48 49 48 50 48 43 39 34 32 30 29 27 26 27 27 27 30 31 31 29 28 28 28 27 25 21
175 176 176 173 171 172 172 175 178 177 176 177 180 183 184 187 190 190 186 182 180 177 176 173 156 143 139 136 140 148 147 149 150 162 201 200 141 111 141 159 173 173 171 172 176 187 200 219 225 249 319 355 341 321 344 19 52 62 58 46 45 46 52 50 44 39 33 31 29 27 26 24 24 25 25 27 28 27 25 21 20 20 20 21 20
179 179 178 177 176 175 174 175 179 180 181 183 182 182 187 193 194 190 188 187 185 184 180 168 155 146 143 141 141 156 156 150 146 127 162 188 169 100 139 160 178 189 188 184 179 183 204 239 265 277 307 352 356 344 5 33 47 56 59 52 36 35 53 52 43 38 31 29 28 24 23 21 20 20 21 22 23 23 20 15 13 11 10 11 13
184 184 181 179 182 183 178 178 183 184 185 188 186 187 191 193 192 190 189 188 186 185 183 172 162 160 164 168 182 202 181 167 180 172 168 205 226 237 163 161 174 184 183 185 185 184 197 233 280 288 296 333 349 350 6 45 43 43 47 44 30 19 39 50 43 37 31 27 25 22 20 18 17 15 15 16 17 17 15 11 7 4 2 3 4
191 190 183 177 184 191 185 183 190 190 189 191 190 192 196 195 191 193 193 191 189 185 190 190 173 168 176 179 185 193 185 188 202 201 231 257 244 233 212 181 173 184 190 194 197 196 204 237 269 274 282 323 344 343 356 41 40 33 30 26 19 9 15 33 36 30 27 24 20 18 17 15 13 11 9 9 10 11 10 6 2 359 357 357 358
196 195 191 186 190 197 194 190 194 195 194 195 197 199 201 200 196 197 196 193 194 191 196 200 183 178 188 186 186 192 188 190 202 199 211 240 240 231 227 216 197 191 200 207 203 198 208 232 243 250 276 322 341 338 343 3 14 19 16 8 7 3 359 8 20 18 15 12 11 10 10 10 10 8 5 3 3 4 4 1 358 355 354 354 354
198 197 205 207 202 202 202 199 198 199 200 199 201 204 206 206 202 202 201 198 200 197 200 207 196 189 195 193 193 199 194 190 200 208 201 215 229 232 234 231 222 206 204 206 202 200 205 223 235 247 301 337 334 338 339 337 345 354 352 346 353 360 354 352 6 12 7 2 1 1 360 1 2 3 2 360 357 357 358 357 355 353 352 352 353
204 203 210 216 211 207 207 208 204 202 204 204 203 205 207 207 204 207 207 204 204 203 204 209 205 196 193 196 201 205 203 199 204 215 214 217 226 230 237 235 221 211 205 202 205 211 211 198 209 231 302 332 324 335 328 320 327 332 329 328 338 350 347 342 352 3 2 356 353 354 353 351 352 354 356 356 354 352 352 352 352 351 351 352 352
212 212 213 216 216 214 213 213 209 204 206 207 206 207 209 208 205 208 211 208 208 209 208 208 209 204 194 197 213 217 214 207 204 216 225 229 231 228 234 233 220 215 214 208 209 213 213 201 189 207 250 298 314 326 315 310 313 311 313 321 331 338 336 333 341 350 352 347 344 347 345 342 341 343 346 349 351 349 347 348 349 350 351 351 351
212 211 219 225 223 220 219 218 213 208 208 209 210 210 210 210 208 209 212 212 213 212 210 209 210 206 196 197 214 225 224 209 199 212 229 239 241 225 225 228 223 223 223 221 221 216 216 222 221 225 242 247 256 286 295 299 300 297 303 316 322 325 325 326 332 336 336 333 333 337 336 332 332 334 336 341 345 346 344 343 347 349 350 350 350
211 208 220 234 234 230 226 224 221 216 215 215 213 212 214 214 212 213 215 215 216 214 212 212 211 209 205 206 213 221 227 218 206 210 222 234 239 224 223 229 231 230 228 228 236 233 227 233 241 248 254 254 254 262 274 285 290 293 302 309 310 311 315 321 325 324 322 320 323 329 326 322 324 326 329 333 338 341 340 339 343 349 349 349 349
214 211 220 231 236 234 228 227 228 226 224 223 220 219 219 219 218 219 220 219 218 217 216 216 217 218 219 219 220 224 230 228 217 211 212 224 235 229 229 237 241 238 233 233 242 244 240 241 247 254 258 259 259 259 262 271 282 292 299 301 301 302 307 318 322 319 317 317 321 322 316 316 319 321 323 328 331 333 334 335 339 346 348 346 346
220 216 222 230 237 236 229 227 230 231 230 227 226 227 224 223 224 223 224 225 224 224 225 223 223 227 227 224 225 230 234 235 227 218 214 217 225 233 243 251 250 246 240 238 242 250 254 253 252 255 259 262 262 263 266 274 283 289 292 294 295 298 307 317 320 317 315 317 320 314 307 309 313 315 317 323 325 323 326 331 334 340 343 343 342
229 224 224 228 235 238 234 230 229 231 234 232 231 231 230 228 228 227 228 229 226 226 230 231 230 231 231 229 229 233 236 235 229 224 222 219 217 225 242 252 255 254 250 247 250 257 264 264 261 260 262 265 265 266 271 278 282 285 289 291 295 304 312 316 315 313 312 318 321 315 310 309 310 313 315 318 318 313 317 324 327 332 336 337 337
231 233 232 231 233 236 237 236 233 231 234 237 237 236 234 232 232 231 232 234 231 227 228 233 234 233 234 234 236 238 239 235 230 231 235 228 217 217 227 238 247 251 248 248 253 257 260 265 270 272 272 271 269 270 276 284 287 288 290 295 304 313 316 314 311 311 315 321 322 318 316 316 315 316 317 317 313 309 311 316 319 323 328 330 330
226 231 237 241 240 239 238 237 237 236 236 237 241 243 240 238 238 236 234 236 238 235 232 232 233 235 237 237 238 240 241 240 237 238 242 239 229 223 225 229 236 244 245 244 246 250 254 260 268 273 274 275 276 276 281 288 290 292 296 303 311 314 314 314 313 315 320 321 319 316 317 319 319 318 318 315 312 310 310 313 315 317 320 324 325
226 226 233 243 247 247 246 244 240 240 240 239 241 245 245 242 242 242 240 238 241 243 243 240 239 240 241 243 245 245 246 248 248 245 244 245 242 238 234 233 235 241 246 249 251 252 253 258 264 270 274 278 281 282 283 287 290 294 300 304 307 309 311 311 311 315 316 312 311 314 316 317 316 315 313 309 308 310 311 311 311 311 315 319 320
237 230 229 238 248 251 252 252 248 246 245 244 242 244 246 244 243 244 246 244 243 244 246 247 247 246 245 248 249 249 250 253 255 255 253 249 247 249 250 249 247 246 249 256 261 262 261 261 264 270 276 281 284 287 290 293 294 296 298 296 295 299 304 303 305 309 306 303 307 312 314 313 311 310 308 305 306 308 309 308 305 304 310 316 315
248 245 235 233 241 250 253 254 254 253 252 250 247 245 245 244 243 245 247 248 248 247 246 246 246 245 246 248 249 249 250 253 257 262 265 264 262 262 263 263 260 257 257 261 265 267 269 269 270 273 277 281 285 289 292 293 294 296 295 288 286 293 299 298 298 300 298 300 307 311 312 311 310 308 306 307 311 312 311 307 301 298 305 311 310
245 249 249 240 236 243 251 254 255 255 256 258 257 252 248 245 245 246 248 250 252 251 250 249 247 245 244 246 249 250 251 256 264 271 275 277 277 277 278 275 271 267 265 265 266 267 269 272 275 278 280 282 286 289 291 294 296 296 294 290 287 290 292 291 291 293 294 298 304 308 310 312 312 310 309 312 317 316 312 306 298 294 300 303 304
232 235 241 245 242 240 246 252 255 256 257 261 263 261 256 251 248 247 248 250 253 254 255 254 254 253 250 248 250 249 248 251 257 265 271 274 275 276 277 277 277 275 272 270 269 270 271 272 276 279 281 284 289 291 292 294 296 296 294 291 287 285 284 283 284 288 291 296 301 304 307 312 312 309 310 314 316 314 309 302 293 291 298 300 301
228 226 226 233 240 242 243 247 251 255 258 261 264 267 265 261 256 252 250 250 251 253 255 256 257 257 256 255 255 253 250 247 248 253 260 265 268 270 271 273 277 279 279 277 275 274 274 275 278 279 281 285 290 292 293 296 298 297 293 288 282 279 279 279 280 284 290 295 298 299 303 308 309 307 310 312 311 310 309 303 296 295 300 302 300
227 230 224 223 230 236 240 244 248 252 255 258 261 264 267 269 266 261 257 254 252 252 253 254 257 258 258 258 257 257 255 252 249 249 254 260 265 267 270 273 276 278 279 279 278 277 277 277 278 279 282 286 289 292 296 298 297 295 292 288 285 282 281 282 284 288 292 295 296 296 297 303 307 306 306 307 304 301 305 304 298 296 298 298 297
229 236 231 224 225 229 234 240 245 249 254 257 259 260 262 267 270 268 265 261 258 256 254 253 254 256 259 260 260 261 261 259 256 254 253 256 260 263 266 269 272 274 275 275 274 274 275 277 279 282 286 287 289 292 295 295 292 291 291 291 290 287 285 285 287 289 291 292 293 293 293 298 305 304 303 305 302 295 297 300 299 295 292 290 292
235 241 240 236 233 231 231 235 240 246 250 253 256 257 258 260 265 268 268 265 263 262 260 257 255 255 257 259 261 263 265 265 264 263 261 259 259 261 263 265 267 270 271 271 272 273 275 278 281 284 287 288 289 290 292 290 288 289 291 291 290 287 286 285 286 287 289 291 293 291 290 295 302 301 302 307 306 297 294 298 301 300 294 290 291
235 239 241 242 242 238 235 235 238 242 246 249 253 256 258 260 262 262 263 263 263 263 263 262 261 260 259 259 260 262 265 267 268 269 269 268 267 267 268 270 271 272 272 272 273 274 276 279 281 285 287 288 288 288 289 288 286 287 288 286 286 286 286 286 287 288 291 293 294 291 289 293 299 301 303 308 307 299 293 293 297 299 297 296 297
235 238 240 242 242 240 238 238 240 243 245 248 251 253 256 260 262 260 259 260 260 261 262 262 262 262 262 262 262 262 264 266 268 269 270 270 270 271 272 274 276 277 278 279 279 280 281 282 284 286 288 289 289 288 287 284 282 283 281 279 281 285 286 285 286 291 295 296 297 293 289 290 297 301 301 304 302 296 292 292 293 294 294 296 298
244 245 244 242 239 237 238 238 240 245 246 244 244 249 252 253 256 258 258 260 261 261 262 262 261 261 262 262 262 262 263 264 265 266 266 266 267 269 270 273 275 276 278 280 281 283 284 285 285 287 288 289 289 287 285 282 280 277 275 276 280 283 282 283 286 290 292 295 299 296 288 290 297 299 299 301 299 294 293 294 294 292 291 291 292
252 251 248 245 240 238 239 239 243 248 248 243 243 247 248 248 250 252 255 258 261 262 263 263 262 262 262 263 263 263 265 267 267 266 266 266 266 268 269 271 272 274 278 279 280 281 283 283 285 286 287 288 288 286 285 284 281 277 274 275 278 278 279 283 288 288 287 293 304 302 292 293 299 299 298 299 296 294 295 294 293 291 287 284 286